This is the latest recevied weather packets stored in our database for station/object KC3ULW-13. If no packets are shown the sender has not sent any weather packets the latest 10 day(s).
| Time | Temp. | Humidity | Pressure | Rain* | Wind** | Luminosity | Snow |
|---|---|---|---|---|---|---|---|
| 1777678097 | 7.78° C | 86% | 1014.9 hPa | 0 mm | - | 55 W/m² | - |
| 1777677795 | 7.78° C | 86% | 1014.4 hPa | 0 mm | - | 55 W/m² | - |
| 1777677492 | 7.78° C | 86% | 1014.1 hPa | 1.27 mm | - | 29 W/m² | - |
| 1777677190 | 8.33° C | 86% | 1014.2 hPa | 1.27 mm | - | 16 W/m² | - |
| 1777676888 | 8.33° C | 86% | 1014.4 hPa | 1.78 mm | - | 15 W/m² | - |
| 1777676587 | 8.89° C | 85% | 1014.3 hPa | 4.83 mm | - | 12 W/m² | - |
| 1777676283 | 9.44° C | 83% | 1014.1 hPa | 7.87 mm | - | 7 W/m² | - |
| 1777675981 | 10° C | 82% | 1013.9 hPa | 4.83 mm | - | 6 W/m² | - |
| 1777675677 | 10° C | 80% | 1013.7 hPa | 0 mm | - | 3 W/m² | - |
| 1777675375 | 10° C | 80% | 1013.7 hPa | 0 mm | - | 9 W/m² | - |
| 1777675070 | 10.56° C | 80% | 1013.8 hPa | 0 mm | - | 29 W/m² | - |
| 1777674767 | 10° C | 80% | 1013.6 hPa | 0 mm | - | 56 W/m² | - |
| 1777674464 | 10° C | 81% | 1013.6 hPa | 0 mm | - | 81 W/m² | - |
| 1777674162 | 10° C | 80% | 1013.8 hPa | 0 mm | - | 58 W/m² | - |
| 1777673858 | 10° C | 81% | 1013.8 hPa | 0 mm | - | 85 W/m² | - |
| 1777673555 | 10° C | 81% | 1013.7 hPa | 0 mm | - | 59 W/m² | - |
| 1777673252 | 10° C | 80% | 1013.9 hPa | 0 mm | - | 78 W/m² | - |
| 1777672949 | 10° C | 80% | 1014.1 hPa | 0 mm | - | 79 W/m² | - |
| 1777672646 | 10° C | 80% | 1013.6 hPa | 0 mm | - | 61 W/m² | - |
| 1777672341 | 10.56° C | 81% | 1014 hPa | 0 mm | - | 108 W/m² | - |
| 1777672037 | 10.56° C | 81% | 1013.9 hPa | 0 mm | - | 151 W/m² | - |
| 1777671733 | 10.56° C | 81% | 1013.5 hPa | 0 mm | - | 151 W/m² | - |
| 1777671429 | 10° C | 82% | 1013.6 hPa | 0 mm | - | 205 W/m² | - |
| 1777671125 | 10° C | 83% | 1013.9 hPa | 0 mm | - | 117 W/m² | - |
| 1777670822 | 9.44° C | 83% | 1013.6 hPa | 0 mm | - | 106 W/m² | - |
* Rain latest hour (hover to see other rain measurements)
** Current wind speed in m/s (hover to see current wind gust speed)